This demonstration page uses our WeatherBlox Daily Observations layout. Learn more.

Left ArrowRight Arrow

Hourly Observations for October 7, 2022

Temp ( °F °C ) Dew Point ( °F °C ) Humidity (%) Winds ( mph kmh ) Pressure ( in mb ) Visibility ( mi km ) Precip ( " mm )
12:15 am 00:15 Cloudy 58 14.5 54 12.3 87 87 N 12 19 30.10 1019 10 16 0.00 0.00
12:35 am 00:35 Mostly Cloudy 57 13.9 53 11.4 85 85 N 15 24 30.11 1020 10 16 0.00 0.00
12:55 am 00:55 Partly Cloudy 56 13.1 48 8.7 75 75 N 9 15 30.12 1020 10 16 0.00 0.00
1:15 am 01:15 Clear 54 12.2 48 8.8 80 80 N 7 11 30.12 1020 10 16 0.00 0.00
1:35 am 01:35 Partly Cloudy 54 12.2 47 8.1 76 76 N 9 15 30.13 1020 10 16 0.00 0.00
1:55 am 01:55 Cloudy 54 12.4 46 8 74 74 N 7 11 30.13 1020 10 16 0.00 0.00
2:15 am 02:15 Cloudy 54 12.3 46 7.8 74 74 N 7 11 30.14 1021 10 16 0.00 0.00
2:35 am 02:35 Cloudy 54 12.2 46 7.7 74 74 N 13 20 30.14 1021 10 16 0.00 0.00
2:55 am 02:55 Cloudy 54 12 44 6.5 69 69 N 15 24 30.16 1021 10 16 0.00 0.00
3:15 am 03:15 Mostly Cloudy 53 11.4 44 6.6 72 72 NNE 12 19 30.17 1022 10 16 0.00 0.00
3:35 am 03:35 Partly Cloudy 51 10.7 45 7.2 79 79 NNE 7 11 30.18 1022 10 16 0.00 0.00
3:55 am 03:55 Mostly Cloudy 51 10.7 46 7.5 81 81 N 8 13 30.18 1022 10 16 0.00 0.00
4:15 am 04:15 Mostly Cloudy 51 10.3 46 7.5 83 83 N 7 11 30.19 1022 10 16 0.00 0.00
4:35 am 04:35 Cloudy 51 10.6 46 7.9 83 83 N 7 11 30.20 1023 10 16 0.00 0.00
4:55 am 04:55 Cloudy 51 10.6 46 7.8 83 83 N 10 17 30.20 1023 10 16 0.00 0.00
5:15 am 05:15 Mostly Cloudy 50 10 44 6.6 79 79 N 15 24 30.20 1023 10 16 0.00 0.00
5:35 am 05:35 Partly Cloudy 48 9.1 40 4.2 71 71 N 13 20 30.22 1023 10 16 0.00 0.00
5:55 am 05:55 Clear 47 8.6 39 4 73 73 N 12 19 30.23 1024 10 16 0.00 0.00
6:15 am 06:15 Clear 47 8.2 39 3.8 74 74 N 12 19 30.23 1024 10 16 0.00 0.00
6:35 am 06:35 Clear 46 7.7 38 3.4 74 74 N 12 19 30.24 1024 10 16 0.00 0.00
6:55 am 06:55 Clear 45 7.4 37 3 74 74 N 10 17 30.24 1024 10 16 0.00 0.00
7:15 am 07:15 Partly Cloudy 45 7.1 36 2.3 71 71 N 10 17 30.25 1024 10 16 0.00 0.00
7:35 am 07:35 Partly Cloudy 44 6.5 35 1.5 70 70 N 10 17 30.26 1025 10 16 0.00 0.00
7:55 am 07:55 Sunny 43 6.3 35 1.6 72 72 N 8 13 30.28 1025 10 16 0.00 0.00
8:15 am 08:15 Sunny 44 6.4 35 1.7 72 72 N 6 9 30.28 1026 10 16 0.00 0.00
8:35 am 08:35 Sunny 44 6.7 36 2.1 72 72 NNW 9 15 30.29 1026 10 16 0.00 0.00
8:55 am 08:55 Sunny 45 7.2 36 2 69 69 N 12 19 30.29 1026 10 16 0.00 0.00
9:15 am 09:15 Sunny 46 7.5 35 1.7 67 67 N 8 13 30.30 1026 10 16 0.00 0.00
9:35 am 09:35 Sunny 46 7.8 35 1.5 64 64 N 10 17 30.30 1026 10 16 0.00 0.00
9:55 am 09:55 Sunny 47 8.4 35 1.5 62 62 N 15 24 30.30 1026 10 16 0.00 0.00
10:15 am 10:15 Sunny 47 8.6 33 0.8 58 58 N 14 22 30.31 1026 10 16 0.00 0.00
10:35 am 10:35 Sunny 48 9.1 33 0.8 56 56 N 14 22 30.32 1027 10 16 0.00 0.00
10:55 am 10:55 Sunny 50 9.8 34 1 54 54 N 12 19 30.31 1027 10 16 0.00 0.00
11:15 am 11:15 Sunny 50 10 34 0.9 53 53 N 15 24 30.32 1027 10 16 0.00 0.00
11:35 am 11:35 Sunny 51 10.5 34 1 52 52 NNW 13 20 30.32 1027 10 16 0.00 0.00
11:55 am 11:55 Sunny 51 10.7 34 1 51 51 N 9 15 30.33 1027 10 16 0.00 0.00
12:15 pm 12:15 Sunny 53 11.4 34 0.9 48 48 N 12 19 30.32 1027 10 16 0.00 0.00
12:35 pm 12:35 Sunny 53 11.6 34 1.3 49 49 N 14 22 30.32 1027 10 16 0.00 0.00
12:55 pm 12:55 Sunny 53 11.9 34 1 47 47 N 10 17 30.32 1027 10 16 0.00 0.00
1:15 pm 13:15 Sunny 54 12.4 34 0.9 45 45 N 13 20 30.32 1027 10 16 0.00 0.00
1:35 pm 13:35 Sunny 55 12.5 33 0.4 43 43 N 13 20 30.32 1027 10 16 0.00 0.00
1:55 pm 13:55 Sunny 55 13 33 0.4 42 42 NNW 9 15 30.31 1026 10 16 0.00 0.00
2:15 pm 14:15 Sunny 55 13 32 0 41 41 N 15 24 30.31 1026 10 16 0.00 0.00
2:35 pm 14:35 Sunny 56 13.2 32 0.1 41 41 NNW 13 20 30.30 1026 10 16 0.00 0.00
2:55 pm 14:55 Sunny 56 13.3 32 0.1 40 40 N 13 20 30.30 1026 10 16 0.00 0.00
3:15 pm 15:15 Sunny 56 13.2 32 -0.1 40 40 N 17 28 30.30 1026 10 16 0.00 0.00
3:35 pm 15:35 Sunny 56 13.2 32 0 40 40 N 10 17 30.30 1026 10 16 0.00 0.00
3:55 pm 15:55 Sunny 56 13.5 32 -0.1 39 39 NNW 16 26 30.30 1026 10 16 0.00 0.00
4:15 pm 16:15 Sunny 57 13.7 32 0 39 39 NNW 14 22 30.29 1026 10 16 0.00 0.00
4:35 pm 16:35 Sunny 57 14 32 0.2 39 39 NNW 12 19 30.30 1026 10 16 0.00 0.00
4:55 pm 16:55 Sunny 55 13 33 0.5 42 42 N 12 19 30.30 1026 10 16 0.00 0.00
5:15 pm 17:15 Mostly Cloudy 57 13.8 33 0.5 40 40 N 14 22 30.30 1026 10 16 0.00 0.00
5:30 pm 17:30 Mostly Cloudy 56 13.1 33 0.6 42 42 NNW 12 19 30.30 1026 10 16 0.00 0.00
5:55 pm 17:55 Mostly Cloudy 53 11.9 33 0.6 46 46 N 10 17 30.31 1026 10 16 0.00 0.00
6:15 pm 18:15 Mostly Cloudy 55 12.9 33 0.6 43 43 N 13 20 30.30 1026 10 16 0.00 0.00
6:35 pm 18:35 Partly Cloudy 53 11.4 32 0.2 46 46 N 10 17 30.32 1027 10 16 0.00 0.00
6:55 pm 18:55 Partly Cloudy 51 10.5 33 0.5 50 50 N 10 17 30.32 1027 10 16 0.00 0.00
7:15 pm 19:15 Partly Cloudy 50 10 33 0.5 52 52 NNW 8 13 30.33 1027 10 16 0.00 0.00
7:35 pm 19:35 Mostly Cloudy 49 9.7 33 0.5 53 53 NNW 7 11 30.34 1028 10 16 0.00 0.00
7:55 pm 19:55 Cloudy 49 9.5 34 1 55 55 NNW 7 11 30.34 1028 10 16 0.00 0.00
8:15 pm 20:15 Cloudy 49 9.5 35 1.5 57 57 NNW 10 17 30.35 1028 10 16 0.00 0.00
8:35 pm 20:35 Cloudy 49 9.5 37 2.9 63 63 N 9 15 30.36 1028 10 16 0.00 0.00
8:55 pm 20:55 Cloudy 49 9.4 37 2.8 63 63 N 12 19 30.37 1029 10 16 0.00 0.00
9:15 pm 21:15 Cloudy 48 8.9 37 2.5 64 64 N 8 13 30.38 1029 10 16 0.00 0.00
9:35 pm 21:35 Partly Cloudy 46 7.7 37 2.5 70 70 N 7 11 30.38 1029 10 16 0.00 0.00
9:55 pm 21:55 Clear 44 6.6 36 2.4 74 74 NNW 6 9 30.39 1029 10 16 0.00 0.00
10:15 pm 22:15 Clear 42 5.8 36 2.3 78 78 NNW 6 9 30.41 1030 10 16 0.00 0.00
10:35 pm 22:35 Clear 42 5.6 36 2.3 79 79 N 7 11 30.41 1030 10 16 0.00 0.00
10:55 pm 22:55 Clear 41 4.9 36 2.1 82 82 N 6 9 30.42 1030 10 16 0.00 0.00
11:15 pm 23:15 Clear 40 4.5 36 2.1 84 84 NNW 5 7 30.43 1030 10 16 0.00 0.00
11:35 pm 23:35 Clear 40 4.2 36 2.1 86 86 NNW 6 9 30.43 1031 10 16 0.00 0.00
11:55 pm 23:55 Clear 39 3.7 35 1.9 88 88 NNW 5 7 30.43 1031 10 16 0.00 0.00

Powered by AerisWeather